TimeMDT,TemperatureF,Dew PointF,Humidity,Sea Level PressureIn,VisibilityMPH,Wind Direction,Wind SpeedMPH,Gust SpeedMPH,PrecipitationIn,Events,Conditions,WindDirDegrees,DateUTC
12:58 AM,39.7,13.3,34,30.09,10.0,NNE,2.3,-,N/A,,Clear,30,2013-03-19 06:58:00
1:58 AM,37.6,11.1,34,30.11,10.0,NNE,3.5,-,N/A,,Clear,30,2013-03-19 07:58:00
2:58 AM,38.5,6.4,26,30.09,10.0,NNW,2.3,-,N/A,,Clear,340,2013-03-19 08:58:00
3:58 AM,34.0,9.7,36,30.11,10.0,ESE,4.6,-,N/A,,Clear,110,2013-03-19 09:58:00
4:58 AM,34.2,7.7,33,30.12,10.0,ESE,8.1,-,N/A,,Clear,110,2013-03-19 10:58:00
5:58 AM,34.5,5.9,30,30.12,10.0,ESE,6.9,-,N/A,,Clear,110,2013-03-19 11:58:00
6:58 AM,31.6,8.2,38,30.14,10.0,ESE,9.2,-,N/A,,Clear,120,2013-03-19 12:58:00
6:59 AM,17.6,10.4,73,30.24,10.0,East,4.6,-,N/A,,Clear,90,2013-03-19 12:59:00
7:58 AM,31.6,8.8,38,30.17,10.0,ESE,11.5,-,N/A,,Clear,110,2013-03-19 13:58:00
8:58 AM,34.0,9.5,36,30.19,10.0,ESE,11.5,-,N/A,,Clear,120,2013-03-19 14:58:00
9:58 AM,38.5,9.7,31,30.21,10.0,East,9.2,-,N/A,,Clear,100,2013-03-19 15:58:00
10:58 AM,42.1,5.9,22,30.21,10.0,Variable,2.3,-,N/A,,Clear,0,2013-03-19 16:58:00
11:58 AM,44.8,-0.8,15,30.22,10.0,SE,3.5,-,N/A,,Clear,130,2013-03-19 17:58:00
12:58 PM,46.9,-7.6,10,30.21,10.0,Variable,2.3,-,N/A,,Clear,0,2013-03-19 18:58:00
1:58 PM,50.0,-0.4,13,30.19,10.0,Variable,2.3,-,N/A,,Clear,0,2013-03-19 19:58:00
2:58 PM,50.4,-0.0,13,30.18,10.0,West,5.8,-,N/A,,Partly Cloudy,260,2013-03-19 20:58:00
3:58 PM,50.9,-0.0,12,30.17,10.0,North,4.6,-,N/A,,Clear,350,2013-03-19 21:58:00
4:58 PM,51.6,-1.1,11,30.17,10.0,Variable,3.5,-,N/A,,Clear,0,2013-03-19 22:58:00
5:58 PM,51.4,-5.8,9,30.16,10.0,West,6.9,-,N/A,,Clear,280,2013-03-19 23:58:00
6:58 PM,49.8,-5.6,10,30.14,10.0,North,3.5,-,N/A,,Clear,10,2013-03-20 00:58:00
7:58 PM,47.1,3.4,17,30.16,10.0,NNW,5.8,-,N/A,,Clear,330,2013-03-20 01:58:00
8:58 PM,45.7,3.2,17,30.15,10.0,East,4.6,-,N/A,,Clear,80,2013-03-20 02:58:00
9:58 PM,42.8,5.0,21,30.15,10.0,ESE,11.5,-,N/A,,Clear,110,2013-03-20 03:58:00
10:58 PM,41.7,4.5,21,30.12,10.0,ESE,16.1,-,N/A,,Clear,110,2013-03-20 04:58:00
11:58 PM,42.1,2.8,20,30.09,10.0,ESE,15.0,-,N/A,,Clear,110,2013-03-20 05:58:00